Regional Weather Roundup
Issued by NWS

Home | Current Version | Previous Version | Graphics & Text | Print | Product List | Glossary On
Versions: 1 2 3 4 5 6 7 8 9 10 11 12 13 14 15 16 17 18 19 20 21 22 23 24 25 26 27 28 29 30 31 32 33 34 35 36 37 38 39 40 41 42 43 44 45 46 47 48 49 50
000
ASUS43 KBIS 240701
RWRND

NORTH DAKOTA REGIONAL WEATHER ROUNDUP
NATIONAL WEATHER SERVICE BISMARCK ND
200 AM CDT SUN MAY 24 2015

NOTE: "FAIR" INDICATES FEW OR NO CLOUDS BELOW 12,000 FEET WITH NO
SIGNIFICANT WEATHER AND/OR OBSTRUCTIONS TO VISIBILITY.


NDZ001>003-009>011-017-240800-
NORTHWEST NORTH DAKOTA

CITY           SKY/WX    TMP DP  RH WIND       PRES   REMARKS
WILLISTON      CLEAR     48  43  82 CALM      30.11R
MINOT          PTCLDY    54  46  74 SW7       30.10R
MINOT AFB      PTCLDY    50  49  95 SW2       30.09R
$$

NDZ018>021-031>035-040>046-240800-
SOUTHWEST NORTH DAKOTA

CITY           SKY/WX    TMP DP  RH WIND       PRES   REMARKS
BISMARCK       CLOUDY    56  52  86 E5        30.10F
DICKINSON      PTCLDY    48  46  93 NE5       30.07F
GARRISON         N/A     55  48  77 CALM      30.10F
HETTINGER ARPT CLOUDY    51  48  89 NE3       30.07F
$$

NDZ004>008-012>016-024-026-027-054-240800-
NORTHEAST NORTH DAKOTA

CITY           SKY/WX    TMP DP  RH WIND       PRES   REMARKS
GRAND FORKS    CLEAR     52  44  74 CALM      30.09S
GRND FRKS AFB  CLEAR     48  45  88 CALM      30.09F
DEVILS LAKE    CLEAR     54  45  71 CALM      30.11R
$$

NDZ022-023-025-028>030-036>039-047>053-240800-
SOUTHEAST NORTH DAKOTA

CITY           SKY/WX    TMP DP  RH WIND       PRES   REMARKS
FARGO          CLEAR     54  48  80 E3        30.09F
JAMESTOWN      CLOUDY    54  51  90 N3        30.10S
$$




USA.gov is the U.S. government's official web portal to all federal, state and local government web resources and services.